Howe Sound: Past 24 Hour Conditions

 

Howe Sound - Pam Rocks

04:00 AM PDT 20 April 2014
This table is a summary of hourly weather conditions for the past 24 hours.
Date / Time
(PDT)
Wind(knots) Conditions Visibility(km) Pressure(kPa) Air tempC) Relative humidity(%) Dew pointC)
20 April 2014
4:00 WNW 3 N/A N/A 102.2 9 79 5
3:00 SSW 13 N/A N/A 102.1 9 78 6
2:00 SSW 9 N/A N/A 102.0 10 75 6
1:00 S 11 N/A N/A 101.9 10 75 5
0:00 SSW 11 N/A N/A 101.8 10 81 7
19 April 2014
23:00 SW 10 N/A N/A 101.7 10 82 7
22:00 W 2 N/A N/A 101.6 9 91 7
21:00 ENE 3 N/A N/A 101.4 8 90 7
20:00 NE 8 N/A N/A 101.3 8 88 6
19:00 NNE 11 N/A N/A 101.2 8 91 7
18:00 NNE 8 N/A N/A 101.1 8 89 7
17:00 NNE 7 N/A N/A 101.1 9 89 7
16:00 NNE 10 N/A N/A 101.0 9 85 7
15:00 N 8 N/A N/A 101.0 10 73 5
14:00 S 9 N/A N/A 100.9 10 72 5
13:00 NE 16 N/A N/A 100.7 9 74 5
12:00 NNE 22 gust 31 N/A N/A 100.7 9 74 4
11:00 NE 23 gust 29 N/A N/A 100.7 8 77 5
10:00 NNE 30 gust 38 N/A N/A 100.7 8 80 5
9:00 NNE 31 gust 42 N/A N/A 100.7 8 79 4
8:00 NNE 29 gust 35 N/A N/A 100.8 8 79 4
7:00 NNE 17 N/A N/A 101.0 8 77 4
6:00 NE 12 gust 18 N/A N/A 101.0 9 68 3
5:00 NE 19 gust 29 N/A N/A 100.9 9 72 4
4:00 NE 18 N/A N/A 100.9 9 74 4
 
Map of Pacific - Georgia Basin marine weather areas Tsawwassen Ferry Terminal Sentry Shoal - 46131 Halibut Bank - 46146 La Perouse Bank - 46206 Discovery Island Esquimalt Harbour Kelp Reefs Malahat Race Rocks Lightstation Saturna Island Sheringham Point University of Victoria Victoria Gonzales Victoria Int'l Airport Ballenas Islands Campbell River Airport Comox Airport Entrance Island Fanny Island Nanaimo Airport Sisters Islets Estevan Point Tofino Airport Grief Point Powell River Airport Sechelt Point Atkinson Sand Heads Lightstation Vancouver Harbour Vancouver Int'l Airport West Vancouver Port Alberni Howe Sound - Pam Rocks Squamish Airport